User: anonymous   Login
Location: Spradlin Observatory
(33.4706°N, 86.3221°W)
Time: 11:10:26
(UTC-05:00)
Language:

COSMOS 2406 - Orbit

View from above orbital plane
View from above orbital plane
View from above satellite
View from above satellite

Ground track
Ground track

The orbit data is extracted from the following two-line orbital elements,

1 28352U 04021A   16147.53549168 -.00000315  00000-0 -14771-3 0  9991
2 28352  71.0027 211.9352 0015187 317.4422  42.5520 14.11444483616282
Epoch (UTC): 26 May 2016 12:51:06
Eccentricity: 0.0015187
inclination: 71.0027°
perigee height: 843 km
apogee height: 865 km
right ascension of ascending node: 211.9352°
argument of perigee: 317.4422°
revolutions per day: 14.11444483
mean anomaly at epoch: 42.5520°
orbit number at epoch: 61628

The dashed part of the orbit path shows where the satellite is in the earth's shadow,  

DLR